User: anonymous   Login
Location: Chuathbaluk
(61.5726°N, 159.2454°W)
Time: 00:52:30
(UTC+00:00)
Language:

BEESAT - Orbit

View from above orbital plane
View from above orbital plane
View from above satellite
View from above satellite

Ground track
Ground track

The orbit data is extracted from the following two-line orbital elements,

1 35933U 09051C   21023.51261673  .00000105  00000-0  34534-4 0  9996
2 35933  98.6046 220.7577 0005763 174.9368 185.1888 14.56544140601939
Epoch (UTC): 23 January 2021 12:18:10
Eccentricity: 0.0005763
inclination: 98.6046°
perigee height: 700 km
apogee height: 708 km
right ascension of ascending node: 220.7577°
argument of perigee: 174.9368°
revolutions per day: 14.56544140
mean anomaly at epoch: 185.1888°
orbit number at epoch: 60193

The dashed part of the orbit path shows where the satellite is in the earth's shadow,  

DLR